GW3387 Weather Reports


time (UTC)temp
F
wind
direction
speed
knots
gust
knots
rain 1hr
in
rain 24hr
in
rain mn
in
humidity
%
barometer
mb
20260503200022 50 360 0.0 0.9 0.00 0.00 0.00 100 1014.1
20260503194525 51 360 0.0 0.0 0.00 0.00 0.00 100 1014.1
20260503193016 52 360 0.0 0.0 0.00 0.00 0.00 100 1014.2
20260503191517 53 360 0.0 0.9 0.00 0.00 0.00 100 1014.2
20260503190021 53 360 0.0 0.0 0.00 0.00 0.00 100 1014.1
20260503184521 54 360 0.0 0.0 0.00 0.00 0.00 100 1014.1
20260503183024 55 360 0.0 0.0 0.00 0.00 0.00 100 1014.0
20260503181525 56 360 0.0 0.0 0.00 0.00 0.00 100 1013.9
20260503180013 59 360 0.0 0.0 0.00 0.00 0.00 100 1013.9
20260503174512 62 360 0.0 0.0 0.00 0.00 0.00 100 1013.9
20260503173035 64 360 0.0 0.0 0.00 0.00 0.00 100 1013.8
20260503171513 67 360 0.0 0.9 0.00 0.00 0.00 100 1013.8
20260503150105 71 283 2.6 7.0 0.00 0.00 0.00 100 1014.7
20260503081559 61 261 3.5 8.7 0.00 0.00 0.00 100 1020.0
20260503080152 59 179 1.7 7.8 0.00 0.00 0.00 100 1020.0
20260503071543 56 281 3.5 6.1 0.00 0.00 0.00 100 1020.4
20260503054521 46 360 0.9 3.5 0.00 0.00 0.00 100 1020.6
20260503053011 43 360 1.7 3.5 0.00 0.00 0.00 100 1020.5
20260503051508 39 360 0.0 3.5 0.00 0.00 0.00 100 1020.5
20260503050006 38 360 0.0 0.0 0.00 0.00 0.00 100 1020.7
20260503044505 37 360 0.0 0.0 0.00 0.00 0.00 100 1020.7
20260503043001 35 360 0.0 0.9 0.00 0.00 0.00 100 1020.5
20260503041600 33 360 0.0 0.9 0.00 0.00 0.00 100 1020.4
20260503040104 32 54 0.0 0.0 0.00 0.00 0.00 100 1020.3
20260503034557 31 54 0.0 0.0 0.00 0.00 0.00 100 1020.0
20260503033049 30 53 0.0 0.0 0.00 0.00 0.00 100 1020.0
20260503031547 30 53 0.0 0.0 0.00 0.00 0.00 100 1020.0
20260503030048 30 53 0.0 0.0 0.00 0.00 0.00 100 1019.9
20260503024548 31 53 0.0 0.0 0.00 0.00 0.00 100 1019.9
20260503023046 31 53 0.0 0.0 0.00 0.00 0.00 100 1020.0
20260503021542 31 53 0.0 0.0 0.00 0.00 0.00 100 1020.0
20260503020041 31 53 0.0 0.0 0.00 0.00 0.00 100 1020.0
20260503014550 31 54 0.0 0.0 0.00 0.00 0.00 100 1020.0
20260503013041 32 59 0.0 0.0 0.00 0.00 0.00 100 1020.0
20260503011537 32 55 0.0 0.0 0.00 0.00 0.00 100 1020.0
20260503010038 32 55 0.0 0.0 0.00 0.00 0.00 100 1020.0
20260503004536 33 56 0.0 0.0 0.00 0.00 0.00 100 1019.9
20260503003038 33 55 0.0 0.0 0.00 0.00 0.00 100 1020.0
20260503001528 33 55 0.0 0.0 0.00 0.00 0.00 100 1020.0
20260503000033 34 54 0.0 0.0 0.00 0.00 0.00 100 1020.3
20260502234542 34 55 0.0 0.0 0.00 0.00 0.00 100 1020.4
20260502233022 35 55 0.0 0.0 0.00 0.00 0.00 100 1020.3
20260502231528 35 55 0.0 0.0 0.00 0.00 0.00 100 1020.4
20260502230022 35 55 0.0 2.6 0.00 0.00 0.00 100 1020.4
20260502224517 36 55 0.0 0.0 0.00 0.00 0.00 100 1020.5
20260502223033 36 55 0.0 0.0 0.00 0.00 0.00 100 1020.5
20260502221509 37 56 0.0 0.0 0.00 0.00 0.00 100 1020.5
20260502220007 39 57 0.0 0.0 0.00 0.00 0.00 100 1020.7
20260502214504 39 57 0.0 0.0 0.00 0.00 0.00 100 1020.6
20260502213121 40 57 0.0 0.0 0.00 0.00 0.00 100 1020.7
20260502211558 41 57 0.0 0.9 0.00 0.00 0.00 100 1020.7
20260502210054 41 56 0.0 0.0 0.00 0.00 0.00 100 1020.7
20260502204553 41 56 0.0 1.7 0.00 0.00 0.00 100 1020.7
20260502203112 42 56 0.0 0.0 0.00 0.00 0.00 100 1020.7
20260502201552 42 56 0.0 0.0 0.00 0.00 0.00 100 1020.8